Location: Boda
(47.1872°N, 9.5454°E)
Time: 09:44:45
(UTC+00:00)

Cosmos 1624 Rocket - Pass Details

Date: 14 May 2021
Orbit: 757 x 784 km, 74.0° (Epoch: 17 June)

Event Time Altitude Azimuth Distance (km) Brightness Sun altitude
Exits shadow 01:51:08 20° 187° (S) 1,719 5.3 -15.7°
Maximum altitude 01:54:46 69° 108° (ESE) 838 4.2 -15.4°
Drops below altitude 10° 02:00:05 10° 26° (NNE) 2,351 7.8 -14.8°
Sets 02:02:29 0° 25° (NNE) 3,284 8.9 -14.5°
